ATLAS D R/B, 2328

Orbit data source: Space-Track

ATLAS D R/B, 2328 is space debris in LEO originally from a launch on Thu, 14 Jul 1966 UTC launched from the Air Force Western Test Range (AFWTR). Debris objects in space refer to the collection of defunct objects orbiting the Earth. Examples of debris include non-operational satellites, rocket bodies, and fragments generated from explosions, collisions, or faulty payload assembly.

Loading next visibility...
Identifier
2328, 1966-063C
Orbit
LEO
Country
Flag of USUS
Related business
Manufacturer
ABL
Mission
Spacecraft
Bus & Motor
ALTAIR, Unknown motor
Mass
~125 kg wet, ~125 kg dry
Launch date (UTC)
1966-07-14 (59 years ago)
Launch vehicle
Unknown
Launch site
Air Force Western Test Range (AFWTR)
Object type
Payload
Rocket body
Debris
Shape & HBR
Cyl, 1.6 m
Radar Cross Section
8.765 m², Medium (>0.1 m² and < 1m²)

Expand to show TLE details & history
Last TLE update: 22 hours ago

TLE from 22 hours ago
0 ATLAS D R/B
1 02328U 66063C   25257.26492196  .00000270  00000-0  25109-4 0  9996
2 02328 144.2306 135.2186 0009169  81.5959  48.4747 13.69958617962393
Epoch: 2025-09-14T06:21Z
TLE epoch observation values (Epoch: 2025-09-14T06:21:29.257Z)
Latitude
26.64211°
Longitude
-89.78995°
Altitude
994.64 km
Speed
7.361 km/s
True Right ascension
23h 56m 16s
True Declination
26° 30' 32"
Sunlit
Object was in full shadow at epoch
Visualization orbit readout
Latitude
Unknown
Longitude
Unknown
Altitude
Unknown
Speed
Unknown
Apparent Right ascension
Unknown
Apparent Declination
Unknown
Sunlit
N/A
Visualization observer readout
Local Sidereal Time
20:45:43
Azimuth
Unknown
Elevation
Unknown
Doppler factor
Unknown
Orbital elements
Apogee altitude
1,009.402 km
Perigee altitude
995.868 km
Semi-major axis
7,380.772 km
Eccentricity
0.00092
Inclination
144.2306°
RAAN
135.2186°
Arg. of periapsis
81.5959°
True anomaly
48.55342°
Mean anomaly
48.4747°
Eccentric anomaly
48.51405°
Mean motion
3.42287 °/min
Orbital period
105.17 mins
BSTAR
0.000025109
Loading maneuver chart data...
Computing Atmospheric mass density...
Loading historical data...
Loading historical data...
Loading historical data...
Loading historical data...
Loading historical data...
Loading historical data...
Loading historical data...

Documentation

Showing up to 5 results
|